Date String (YYYY-MM-DD hh:mm:ss) UTC,Instrument flags,Ambient pressure (hPa),Sample flow (lpm),Bypass flow (lpm),Sample temperature (°C),Ambient temperature (°C),ASC tube jacket temperature (°C),LED temperature (°C),Box temperature (°C),Sample RH (%),Span deviation,Mass concentration (μg/m³),Mass concentration (μg/m³),Mass concentration (μg/m³)
DateTimeUTC,F1_M11,P_M11,Q1_M11,Q2_M11,T1_M11,T2_M11,T3_M11,T4_M11,T5_M11,U1_M11,ZSPAN_M11,X0_M11,X2_M11,X1_M11
2022-12-12 05:00:00,,0815.5,5.00,0.00,26.6,24.9,00.0,35.6,28.3,05.6,0000.0,0011.45,0004.92,0004.29
2022-12-12 05:01:00,,0815.9,4.99,0.00,26.6,24.9,00.0,35.6,28.3,05.9,0000.0,0011.39,0004.89,0004.28
2022-12-12 05:02:00,,0816.1,5.00,0.00,26.5,24.9,00.0,35.6,28.3,05.8,0000.0,0010.51,0004.90,0004.29
2022-12-12 05:03:00,,0815.8,5.00,0.00,26.5,24.9,00.0,35.6,28.2,05.7,0000.0,0009.73,0004.85,0004.26
2022-12-12 05:04:00,,0815.7,5.01,0.00,26.5,24.9,00.0,35.5,28.2,05.8,0000.0,0009.61,0004.87,0004.26
2022-12-12 05:05:00,,0815.8,5.00,0.00,26.5,24.9,00.0,35.5,28.2,05.7,0000.0,0009.72,0004.76,0004.18
2022-12-12 05:06:00,,0816.2,5.01,0.00,26.5,24.8,00.0,35.5,28.2,05.7,0000.0,0010.13,0004.53,0003.98
2022-12-12 05:07:00,,0816.0,5.00,0.00,26.5,24.8,00.0,35.5,28.2,05.7,0000.0,0008.86,0004.26,0003.75
2022-12-12 05:08:00,,0816.0,5.00,0.00,26.5,24.8,00.0,35.5,28.2,05.8,0000.0,0008.43,0003.99,0003.54
2022-12-12 05:09:00,,0816.1,4.99,0.00,26.5,24.8,00.0,35.5,28.2,05.8,0000.0,0008.44,0003.79,0003.38
2022-12-12 05:10:00,,0816.1,4.99,0.00,26.5,24.8,00.0,35.5,28.2,05.9,0000.0,0008.68,0003.78,0003.36
2022-12-12 05:11:00,,0816.1,5.00,0.00,26.4,24.8,00.0,35.4,28.2,05.9,0000.0,0008.84,0003.86,0003.43
2022-12-12 05:12:00,,0816.1,5.00,0.00,26.4,24.8,00.0,35.4,28.2,06.1,0000.0,0009.06,0003.99,0003.54
2022-12-12 05:13:00,,0816.1,5.01,0.00,26.4,24.8,00.0,35.4,28.2,06.3,0000.0,0009.32,0004.08,0003.62
2022-12-12 05:14:00,,0816.1,5.01,0.00,26.4,24.8,00.0,35.4,28.1,06.1,0000.0,0009.73,0004.23,0003.72
2022-12-12 05:15:00,,0815.9,5.00,0.00,26.4,24.8,00.0,35.4,28.1,05.8,0000.0,0009.71,0004.21,0003.72
2022-12-12 05:16:00,,0816.0,5.01,0.00,26.4,24.8,00.0,35.4,28.1,05.7,0000.0,0009.77,0004.21,0003.71
2022-12-12 05:17:00,,0816.0,5.00,0.00,26.4,24.8,00.0,35.4,28.1,05.6,0000.0,0008.93,0004.18,0003.68
2022-12-12 05:18:00,,0816.1,5.00,0.00,26.4,24.8,00.0,35.4,28.1,05.8,0000.0,0008.85,0004.16,0003.67
2022-12-12 05:19:00,,0815.9,4.99,0.00,26.4,24.7,00.0,35.4,28.1,06.1,0000.0,0009.11,0004.21,0003.72
2022-12-12 05:20:00,,0816.1,5.00,0.00,26.4,24.7,00.0,35.4,28.1,06.0,0000.0,0008.89,0004.24,0003.74
2022-12-12 05:21:00,,0816.1,5.00,0.00,26.3,24.7,00.0,35.3,28.0,05.9,0000.0,0008.53,0004.17,0003.71
2022-12-12 05:22:00,,0816.0,5.00,0.00,26.3,24.7,00.0,35.3,28.0,05.9,0000.0,0008.42,0004.19,0003.71
2022-12-12 05:23:00,,0816.1,5.01,0.00,26.3,24.7,00.0,35.3,28.0,06.0,0000.0,0008.30,0004.11,0003.66
2022-12-12 05:24:00,,0816.1,5.00,0.00,26.3,24.7,00.0,35.3,28.1,06.1,0000.0,0008.27,0004.08,0003.62
2022-12-12 05:25:00,,0815.9,5.01,0.00,26.3,24.7,00.0,35.3,28.0,06.2,0000.0,0008.03,0004.01,0003.58
2022-12-12 05:26:00,,0815.8,5.00,0.00,26.3,24.7,00.0,35.3,28.0,06.3,0000.0,0009.23,0004.15,0003.69
2022-12-12 05:27:00,,0816.1,5.00,0.00,26.3,24.7,00.0,35.3,28.0,06.1,0000.0,0009.71,0004.27,0003.82
2022-12-12 05:28:00,,0816.0,5.00,0.00,26.3,24.7,00.0,35.3,28.0,06.1,0000.0,0009.88,0004.44,0003.98
2022-12-12 05:29:00,,0816.1,5.00,0.00,26.3,24.7,00.0,35.3,27.9,05.9,0000.0,0010.92,0004.54,0004.06
2022-12-12 05:30:00,,0815.9,5.00,0.00,26.3,24.7,00.0,35.3,27.9,05.7,0000.0,0010.81,0004.43,0003.98
2022-12-12 05:31:00,,0815.8,5.00,0.00,26.2,24.6,00.0,35.2,28.0,05.7,0000.0,0010.66,0004.33,0003.89
2022-12-12 05:32:00,,0816.0,4.99,0.00,26.2,24.6,00.0,35.2,28.0,05.7,0000.0,0010.55,0004.29,0003.85
2022-12-12 05:33:00,,0816.1,5.00,0.00,26.2,24.6,00.0,35.2,27.9,05.8,0000.0,0010.88,0004.21,0003.79
2022-12-12 05:34:00,,0816.1,5.01,0.00,26.2,24.6,00.0,35.2,27.9,05.8,0000.0,0010.91,0004.19,0003.76
2022-12-12 05:35:00,,0816.1,5.01,0.00,26.2,24.5,00.0,35.2,27.9,05.7,0000.0,0010.73,0004.07,0003.65
2022-12-12 05:36:00,,0816.1,5.00,0.00,26.2,24.5,00.0,35.2,27.8,05.7,0000.0,0010.33,0003.96,0003.54
2022-12-12 05:37:00,,0815.9,5.00,0.00,26.2,24.5,00.0,35.2,27.8,05.7,0000.0,0008.91,0003.74,0003.38
2022-12-12 05:38:00,,0816.0,5.00,0.00,26.1,24.5,00.0,35.2,27.9,05.7,0000.0,0008.75,0003.60,0003.24
2022-12-12 05:39:00,,0815.7,4.99,0.00,26.1,24.5,00.0,35.2,27.9,05.9,0000.0,0009.05,0003.51,0003.14
2022-12-12 05:40:00,,0815.5,4.99,0.00,26.1,24.5,00.0,35.1,27.8,06.2,0000.0,0008.12,0003.53,0003.17
2022-12-12 05:41:00,,0815.5,4.99,0.00,26.1,24.5,00.0,35.1,27.8,06.3,0000.0,0008.79,0003.72,0003.34
2022-12-12 05:42:00,,0815.5,5.00,0.00,26.1,24.5,00.0,35.1,27.9,06.4,0000.0,0009.43,0003.95,0003.53
2022-12-12 05:43:00,,0815.5,5.01,0.00,26.1,24.5,00.0,35.1,27.9,06.4,0000.0,0009.78,0004.18,0003.71
2022-12-12 05:44:00,,0815.4,5.00,0.00,26.1,24.5,00.0,35.1,27.8,06.1,0000.0,0009.34,0004.26,0003.79
2022-12-12 05:45:00,,0815.5,5.00,0.00,26.1,24.4,00.0,35.1,27.8,05.9,0000.0,0009.34,0004.22,0003.76
2022-12-12 05:46:00,,0815.8,5.00,0.00,26.1,24.4,00.0,35.1,27.7,06.1,0000.0,0009.58,0004.28,0003.82
2022-12-12 05:47:00,,0815.8,5.00,0.00,26.0,24.4,00.0,35.1,27.7,06.1,0000.0,0010.51,0004.43,0003.92
2022-12-12 05:48:00,,0815.5,5.00,0.00,26.0,24.4,00.0,35.1,27.8,06.0,0000.0,0010.92,0004.55,0004.01
2022-12-12 05:49:00,,0815.5,5.00,0.00,26.0,24.4,00.0,35.0,27.8,06.0,0000.0,0010.66,0004.62,0004.08
2022-12-12 05:50:00,,0815.5,5.00,0.00,26.0,24.4,00.0,35.0,27.7,05.9,0000.0,0010.11,0004.62,0004.10
2022-12-12 05:51:00,,0815.4,5.00,0.00,26.0,24.3,00.0,35.0,27.6,05.8,0000.0,0009.97,0004.53,0004.01
2022-12-12 05:52:00,,0815.4,5.01,0.00,26.0,24.3,00.0,35.0,27.7,05.8,0000.0,0009.21,0004.35,0003.87
2022-12-12 05:53:00,,0815.4,5.00,0.00,26.0,24.3,00.0,35.0,27.6,05.8,0000.0,0008.52,0004.14,0003.70
2022-12-12 05:54:00,,0815.4,5.00,0.00,25.9,24.3,00.0,35.0,27.6,05.7,0000.0,0008.40,0003.94,0003.53
2022-12-12 05:55:00,,0815.4,5.00,0.00,25.9,24.3,00.0,35.0,27.7,05.7,0000.0,0008.43,0003.84,0003.43
2022-12-12 05:56:00,,0815.4,4.99,0.00,25.9,24.3,00.0,35.0,27.7,05.7,0000.0,0008.55,0003.91,0003.47
2022-12-12 05:57:00,,0815.3,5.00,0.00,25.9,24.3,00.0,34.9,27.6,05.8,0000.0,0008.47,0003.90,0003.48
2022-12-12 05:58:00,,0815.3,4.99,0.00,25.9,24.3,00.0,34.9,27.6,05.8,0000.0,0007.47,0003.78,0003.41
2022-12-12 05:59:00,,0815.3,5.00,0.00,25.9,24.3,00.0,34.9,27.6,05.8,0000.0,0006.84,0003.69,0003.35
